Location: Unspecified
(0.0000°N, 0.0000°E)
Time: 13:39:31
(UTC+00:00)

Altair - Visible Passes

Search period start: 27 April 2015 00:00
Search period end: 07 May 2015 00:00
Orbit: 1501 x 1682 km, 47.2° (Epoch: 25 April)

Date Brightness Start Highest point End Pass type
(mag) Time Alt. Az. Time Alt. Az. Time Alt. Az.
28 Apr 9.2 20:37:53 10° SSW 20:39:38 16° SSW 20:39:38 16° SSW visible
29 Apr 8.8 20:12:57 10° SSW 20:16:37 22° S 20:16:37 22° S visible
30 Apr 8.5 19:48:03 10° S 19:53:47 28° SSE 19:53:47 28° SSE visible
30 Apr 9.7 21:51:38 10° SW 21:51:54 11° SW 21:51:54 11° SW visible
01 May 8.3 19:23:12 10° S 19:31:12 28° SE 19:31:12 28° SE visible
01 May 9.1 21:26:20 10° SW 21:29:21 22° SW 21:29:21 22° SW visible
02 May 8.4 18:58:24 10° S 19:06:04 25° SE 19:08:57 23° ESE visible
02 May 8.4 21:01:03 10° SW 21:07:07 42° WSW 21:07:07 42° WSW visible
03 May 8.6 18:33:40 10° S 18:40:47 22° SE 18:47:09 13° E visible
03 May 7.6 20:35:49 10° SW 20:45:22 77° W 20:45:22 77° W visible
04 May 8.7 18:09:01 10° S 18:15:28 20° SE 18:22:29 10° E visible
04 May 7.5 20:10:36 10° SW 20:20:50 88° NW 20:24:23 47° NE visible
04 May 9.6 22:19:40 10° W 22:35:48 - N 22:22:42 15° WNW visible
05 May 7.5 19:45:26 10° SW 19:55:39 84° SE 20:05:40 10° NE visible
05 May 9.3 21:53:42 10° W 22:00:49 20° NW 22:04:45 16° NNW visible
06 May 7.5 19:20:17 10° SW 19:30:28 77° SE 19:40:29 10° NE visible
06 May 9.3 21:27:51 10° W 21:35:33 23° NW 21:42:38 10° N visible
